OPS 4682 DEB, 38406

Orbit data source: Space-Track

OPS 4682 DEB, 38406 is space debris in LEO originally from a launch on Sat, 03 Apr 1965 UTC launched from the Air Force Western Test Range (AFWTR). Debris objects in space refer to the collection of defunct objects orbiting the Earth. Examples of debris include non-operational satellites, rocket bodies, and fragments generated from explosions, collisions, or faulty payload assembly.

Loading next visibility...
Identifier
38406, 1965-027DK
Orbit
LEO
Country
Flag of USUS
Related business
Manufacturer
Unknown
Mission
Spacecraft
Bus & Motor
Unknown
Mass
Unknown
Launch date (UTC)
1965-04-03 (61 years ago)
Launch vehicle
Unknown
Launch site
Air Force Western Test Range (AFWTR)
Object type
Payload
Rocket body
Debris
Shape & HBR
Unknown shape, 0.1 m
Radar Cross Section
Medium (>0.1 m² and <1 m²)

Expand to show TLE details & history
Last TLE update: 1 week ago

TLE from 1 week ago
0 OPS 4682 DEB
1 38406U 65027DK  26228.63758256  .00000397  00000-0  12867-2 0  9998
2 38406  90.2480  12.5127 0026673  91.6319 268.7859 13.00343722563124
Epoch: 2026-08-16T15:18Z
TLE epoch observation values (Epoch: 2026-08-16T15:18:07.133Z)
Latitude
Longitude
177.95174°
Altitude
1,264.111 km
Speed
7.223 km/s
True Right ascension
00h 50m 03s
True Declination
0° 00' 00"
Sunlit
Object was in full shadow at epoch
Visualization orbit readout
Latitude
Unknown
Longitude
Unknown
Altitude
Unknown
Speed
Unknown
Apparent Right ascension
Unknown
Apparent Declination
Unknown
Sunlit
N/A
Visualization observer readout
Local Sidereal Time
15:54:08
Azimuth
Unknown
Elevation
Unknown
Doppler factor
Unknown
Orbital elements
Apogee altitude
1,278.234 km
Perigee altitude
1,237.499 km
Semi-major axis
7,636.004 km
Eccentricity
0.00267
Inclination
90.248°
RAAN
12.5127°
Arg. of periapsis
91.6319°
True anomaly
268.48034°
Mean anomaly
268.7859°
Eccentric anomaly
268.63312°
Mean motion
3.2527 °/min
Orbital period
110.68 mins
BSTAR
0.0012867
Loading maneuver chart data...
Computing Atmospheric mass density...
Loading historical data...
Loading historical data...
Loading historical data...
Loading historical data...
Loading historical data...
Loading historical data...
Loading historical data...

Documentation

Showing up to 5 results
|